Tracking 17154 objects as of 2-August-2015
HD Live streaming from Space Station

COSMOS 252 DEB

Track COSMOS 252 DEB now!
10-day predictions
COSMOS 252 DEB is classified as:


NORAD ID: 3559
Int'l Code: 1968-097M
Perigee: 531.6 km
Apogee: 1,344.7 km
Inclination: 62.3 °
Period: 103.6 minutes
Semi major axis: 7309 km
RCS: 0.1149 m2 (medium)
Launch date: November 1, 1968
Source: Commonwealth of Independent States (former USSR) (CIS)

Note: This is SATELLITE DEBRIS
Your satellite tracking list
Your tracking list is empty





NASA's NSSDC Master Catalog

Two Line Element Set (TLE):
1 03559U 68097M   15212.22283617  .00001191  00000-0  30848-3 0  9992
2 03559 062.2989 096.8715 0556236 343.1636 015.1566 13.89331642288674

Source of the keplerian elements: AFSPC

N2YO: 243